Regional Weather Roundup
Issued by NWS Northern Indiana

Home | Current Version | Previous Version | Graphics & Text | Print | Product List | Glossary On
Versions: 1 2 3 4 5 6 7 8 9 10 11 12 13 14 15 16 17 18 19 20 21 22 23 24 25 26 27 28 29 30 31 32 33 34 35 36 37 38 39 40 41 42 43 44 45 46 47 48 49 50
982
ASUS43 KIWX 131110
RWRIWX

KIWX WEATHER ROUNDUP
NATIONAL WEATHER SERVICE NORTHERN INDIANA
600 AM EST SAT FEB 13 2016

NOTE: "FAIR" INDICATES FEW OR NO CLOUDS BELOW 12,000 FEET WITH NO
SIGNIFICANT WEATHER AND/OR OBSTRUCTIONS TO VISIBILITY.

* THESE STATIONS ARE NOT UNDER NWS QUALITY CONTROL. THEY ALSO MAY NOT
  REPORT WEATHER SUCH AS PRECIPITATION OR FOG.

INZ001>027-131200-
NORTHERN INDIANA

CITY           SKY/WX    TMP DP  RH WIND       PRES   REMARKS
GARY*          CLEAR      7 -13  40 NW17      30.55R WCI -12
VALPARAISO     LGT SNOW   8   0  69 NW14G22   30.50R WCI  -8
MICHIGAN CITY* FLURRIES  12   3  67 NW13G22   30.49R WCI  -3
LAPORTE*       CLOUDY    12   5  73 NW10G16   30.47R HAZE    WCI  -1
KNOX*          CLOUDY    10   3  72 NW14      30.48R WCI  -5
SOUTH BEND     LGT SNOW   9   5  84 NW6       30.45R VSB 3/4 WCI  -1
GOSHEN         MOCLDY     2  -2  83 SW6       30.44R WCI  -9
MONTICELLO*    PTCLDY     6  -8  52 NW10      30.50R WCI  -9
LOGANSPORT*    PTCLDY     9  -6  52 NW8       30.49R WCI  -4
ROCHESTER*     LGT SNOW  12   5  73 NW8       30.47R WCI   1
WARSAW*        FLURRIES   5   1  85 CALM      30.45R
ANGOLA*        PTCLDY     1  -6  71 W6        30.38R WCI -10
FORT WAYNE     PTCLDY     2  -7  66 W6        30.45R WCI  -9
HUNTINGTON*    PTCLDY     2 -10  58 CALM      30.45R
PERU/GRISSOM   PTCLDY     7   0  71 NW13      30.45R WCI  -9
MARION*        LGT SNOW   8  -2  66 N6        30.47R WCI  -3

$$
INZ028>050-131200-
CENTRAL INDIANA

CITY           SKY/WX    TMP DP  RH WIND       PRES   REMARKS
LAFAYETTE      PTCLDY     6  -6  57 NW15      30.53R WCI -12
KOKOMO*        CLEAR      7  -2  66 NW17      30.46R WCI -12
MUNCIE*        LGT SNOW   8   1  73 N9        30.45R WCI  -5
INDIANAPOLIS   PTCLDY     8  -3  61 NW12      30.48R WCI  -7

$$
MIZ043>046-050>051-056>058-064>065-071>073-077>080-131200-
SOUTHWEST LOWER MICHIGAN

CITY           SKY/WX    TMP DP  RH WIND       PRES   REMARKS
BATTLE CREEK   CLEAR     -1  -8  72 W7        30.39R WCI -14
BENTON HARBOR  LGT SNOW  13   4  67 NW10G23   30.45R WCI   0
COLDWATER*     MOCLDY    -3  -8  76 W7        30.39R WCI -16
HILLSDALE*     CLEAR      1  -9  64 W7        30.35R WCI -12
HOLLAND        LGT SNOW  10   5  80 NE5       30.42R VSB 1   WCI   2
GRAND RAPIDS   MOCLDY     9   0  67 NW13      30.39R WCI  -7
KALAMAZOO      LGT SNOW   3  -2  79 W7        30.41R WCI  -9
STURGIS*       MOCLDY     0  -4  82 CALM      30.41R
THREE RIVERS*  FLURRIES   2  -2  84 CALM      30.43R

$$
OHZ001>008-015>018-024>025-131200-
NORTHWEST OHIO

CITY           SKY/WX    TMP DP  RH WIND       PRES   REMARKS
DEFIANCE       CLEAR      5  -6  60 W5        30.43R WCI  -4
FINDLAY        CLEAR      5  -7  57 NW8       30.39R WCI  -8
TOLEDO EXPRESS CLEAR      3  -8  60 W8        30.40R WCI -10
TOLEDO METCALF CLEAR      5  -8  55 NW13      30.42R WCI -12
LIMA           CLEAR      5  -3  69 NW9       30.40R WCI  -9

$$
AND FOR LAKE MICHIGAN COASTAL AND OPEN LAKE BUOY OBSERVATIONS

STATION/POSITION TEMP    WIND        PRES    VSBY  WAVE
                 AIR SEA DIR/SP/G                  HT/PER
                 (F)     (DEG/KT/KT) (MB)    (MI)  (FT/S)
CALUMET HARBOR     5     280/ 10/ 16 1033.0R
MICHIGAN CITY     12     290/ 20/ 27   N/A
BURNS HARBOR      11     320/ 21     1032.8R
SAINT JOSEPH      15     290/ 15/ 24 1031.5S

$$
&&




USA.gov is the U.S. government's official web portal to all federal, state and local government web resources and services.